Regional Weather Roundup
Issued by NWS

Home | Current Version | Previous Version | Graphics & Text | Print | Product List | Glossary On
Versions: 1 2 3 4 5 6 7 8 9 10 11 12 13 14 15 16 17 18 19 20 21 22 23 24 25 26 27 28 29 30 31 32 33 34 35 36 37 38 39 40 41 42 43 44 45 46 47 48 49 50
205
ASUS43 KFSD 091410
RWRSD

WEATHER ROUNDUP FOR SOUTH DAKOTA
NATIONAL WEATHER SERVICE SIOUX FALLS SD
800 AM CST TUE FEB 09 2016

NOTE: "FAIR" INDICATES FEW OR NO CLOUDS BELOW 12,000 FEET WITH NO
SIGNIFICANT WEATHER AND/OR OBSTRUCTIONS TO VISIBILITY.


SDZ001>005-009-010-012>017-091500-
NORTHWEST AND NORTH CENTRAL SOUTH DAKOTA

CITY           SKY/WX    TMP DP  RH WIND       PRES   REMARKS
BUFFALO          N/A     29  23  78 W10       30.12S WCI  20
FAITH            N/A     24  17  74 SE9       30.21F WCI  14
MOBRIDGE       CLOUDY    23  12  62 W3        30.25R
$$

SDZ012>016-024>037-041>051-057-063-072>074-091500-
SOUTHWEST AND SOUTH CENTRAL SOUTH DAKOTA

CITY           SKY/WX    TMP DP  RH WIND       PRES   REMARKS
RAPID CTY ARPT CLEAR     22  15  75 CALM      30.21S
PIERRE         CLOUDY    23   9  55 N6        30.29S WCI  16
CUSTER         CLEAR     35  22  58 NW13G22   30.17S WCI  26
ELLSWORTH AFB  PTCLDY    25  16  69 W3        30.19R
PHILIP         CLOUDY    27  19  72 E10       30.26R WCI  17
PINE RIDGE     CLOUDY    22  16  78 SW3       30.21F
SPEARFISH      CLOUDY    39  27  60 W14       30.23S
WINNER         CLOUDY    23  11  60 N6        30.28S WCI  16
$$

SDZ004>011-016>023-039-040-091500-
NORTHEAST SOUTH DAKOTA

CITY           SKY/WX    TMP DP  RH WIND       PRES   REMARKS
ABERDEEN       CLOUDY    14   6  70 N3        30.29R
WATERTOWN      CLOUDY     4  -2  76 NW9       30.21R WCI -10
SISSETON         N/A     10   5  80 N13       30.25S WCI  -5
$$

SDZ017-020-022-023-036>040-048>070-091500-
SOUTHEAST SOUTH DAKOTA

CITY           SKY/WX    TMP DP  RH WIND       PRES   REMARKS
SIOUX FALLS    PTCLDY     6  -1  73 NW12      30.23R WCI  -9
HURON          CLOUDY    14   8  77 N12       30.29R WCI   0
CHAMBERLAIN    CLOUDY    20   9  61 N5        30.29S WCI  14
MITCHELL       CLOUDY    15   9  76 NW10      30.30S WCI   2
YANKTON        CLEAR     12   5  73 NW16G28   30.27R WCI  -4
$$

ABBREVIATIONS USED IN REMARKS
   TC - TEMPERATURE IN CELSIUS
  WCI - WIND CHILL INDEX
   HX - HEAT INDEX
  VSB - VISIBILITY





USA.gov is the U.S. government's official web portal to all federal, state and local government web resources and services.